Date String (YYYY-MM-DD hh:mm:ss) UTC,Instrument flags,absolute air pressure of the measurement (hPa),sample flow rate (lpm),inlet stack bypass flow (lpm),air temperature of the measurement (°C),ambient temperature measured by the external sensor (°C),aerosol sample conditioner tube jacket temperature (°C),OPC LED temperature (°C),internal box temperature (°C),relative humidity of the measurement (%),span deviation,mass concentration of particles derived from Lorenz-Mie calculation of OPC scattering (μg/m³),mass concentration of particles derived from Lorenz-Mie calculation of OPC scattering (μg/m³),mass concentration of particles derived from Lorenz-Mie calculation of OPC scattering (μg/m³)
DateTimeUTC,F1_M11,P_M11,Q1_M11,Q2_M11,T1_M11,T2_M11,T3_M11,T4_M11,T5_M11,U1_M11,ZSPAN_M11,X0_M11,X2_M11,X1_M11
2024-02-10 22:00:00,SystemResetWarning,0825.5,5.01,000.00,018.2,017.8,000.0,026.8,020.0,20.9,0000.0,0008.76,0006.94,0006.79
2024-02-10 22:01:00,SystemResetWarning,0825.5,5.01,000.00,018.2,017.8,000.0,026.8,020.0,20.9,0000.0,0008.65,0006.88,0006.75
2024-02-10 22:02:00,SystemResetWarning,0825.5,5.00,000.00,018.2,017.8,000.0,026.8,020.0,21.1,0000.0,0008.61,0006.85,0006.72
2024-02-10 22:03:00,SystemResetWarning,0825.5,4.99,000.00,018.2,017.8,000.0,026.8,020.0,21.2,0000.0,0008.58,0006.82,0006.68
2024-02-10 22:04:00,SystemResetWarning,0825.6,4.99,000.00,018.2,017.8,000.0,026.8,020.0,21.1,0000.0,0008.48,0006.74,0006.62
2024-02-10 22:05:00,SystemResetWarning,0825.6,5.00,000.00,018.2,017.8,000.0,026.8,020.0,21.1,0000.0,0008.42,0006.67,0006.54
2024-02-10 22:06:00,SystemResetWarning,0825.6,5.02,000.00,018.3,017.8,000.0,026.8,020.0,21.1,0000.0,0008.33,0006.59,0006.46
2024-02-10 22:07:00,SystemResetWarning,0825.6,4.98,000.00,018.3,017.8,000.0,026.8,020.0,20.8,0000.0,0008.32,0006.53,0006.38
2024-02-10 22:08:00,SystemResetWarning,0825.6,4.99,000.00,018.2,017.7,000.0,026.8,020.0,20.8,0000.0,0008.04,0006.45,0006.32
2024-02-10 22:09:00,SystemResetWarning,0825.6,5.00,000.00,018.2,017.7,000.0,026.8,020.0,20.9,0000.0,0007.97,0006.37,0006.25
2024-02-10 22:10:00,SystemResetWarning,0825.7,5.00,000.00,018.2,017.7,000.0,026.8,020.0,20.7,0000.0,0007.90,0006.30,0006.17
2024-02-10 22:11:00,SystemResetWarning,0825.6,5.01,000.00,018.3,017.8,000.0,026.9,020.1,20.5,0003.3,0008.24,0006.20,0006.08
2024-02-10 22:12:00,SystemResetWarning,0825.7,5.00,000.00,018.4,018.5,000.0,027.0,020.5,20.5,0003.4,0008.29,0006.11,0005.98
2024-02-10 22:13:00,SystemResetWarning,0825.7,4.99,000.00,018.7,019.2,000.0,027.1,020.9,20.3,0003.1,0008.20,0006.01,0005.88
2024-02-10 22:14:00,SystemResetWarning,0825.7,4.99,000.00,018.7,019.1,000.0,027.0,020.8,20.3,0000.6,0008.09,0005.90,0005.78
2024-02-10 22:15:00,SystemResetWarning,0825.7,5.01,000.00,018.7,018.9,000.0,027.0,020.7,20.5,0000.0,0008.00,0005.80,0005.69
2024-02-10 22:16:00,SystemResetWarning,0825.7,5.01,000.00,018.7,018.8,000.0,027.0,020.5,20.5,0000.0,0007.95,0005.75,0005.63
2024-02-10 22:17:00,SystemResetWarning,0825.7,4.99,000.00,018.7,018.6,000.0,026.9,020.4,20.4,0000.0,0007.88,0005.69,0005.58
2024-02-10 22:18:00,SystemResetWarning,0825.7,5.00,000.00,018.7,018.5,000.0,026.9,020.4,20.3,0000.0,0007.75,0005.60,0005.52
2024-02-10 22:19:00,SystemResetWarning,0825.7,4.99,000.00,018.7,018.4,000.0,026.9,020.3,20.3,0000.0,0007.69,0005.55,0005.48
2024-02-10 22:20:00,SystemResetWarning,0825.7,5.01,000.00,018.6,018.3,000.0,026.9,020.3,20.3,0000.0,0007.68,0005.53,0005.45
2024-02-10 22:21:00,SystemResetWarning,0825.7,5.00,000.00,018.6,018.3,000.0,027.0,020.3,20.4,0000.0,0007.66,0005.51,0005.44
2024-02-10 22:22:00,SystemResetWarning,0825.7,5.00,000.00,018.6,018.2,000.0,026.9,020.2,20.4,0000.0,0007.19,0005.46,0005.39
2024-02-10 22:23:00,SystemResetWarning,0825.7,5.01,000.00,018.6,018.1,000.0,027.0,020.2,20.5,0000.0,0006.78,0005.41,0005.34
2024-02-10 22:24:00,SystemResetWarning,0825.7,4.99,000.00,018.5,018.1,000.0,026.9,020.2,20.6,0000.0,0006.69,0005.36,0005.30
2024-02-10 22:25:00,SystemResetWarning,0825.7,4.99,000.00,018.5,018.1,000.0,026.9,020.2,20.5,0000.0,0006.63,0005.33,0005.26
2024-02-10 22:26:00,SystemResetWarning,0825.7,5.00,000.00,018.5,018.1,000.0,026.9,020.1,20.5,0000.0,0006.51,0005.27,0005.21
2024-02-10 22:27:00,SystemResetWarning,0825.7,5.02,000.00,018.5,018.0,000.0,026.9,020.1,20.5,0000.0,0006.44,0005.21,0005.14
2024-02-10 22:28:00,SystemResetWarning,0825.7,5.01,000.00,018.5,018.0,000.0,026.9,020.1,20.6,0000.0,0006.36,0005.16,0005.09
2024-02-10 22:29:00,SystemResetWarning,0825.7,4.99,000.00,018.5,018.0,000.0,026.9,020.1,20.7,0000.0,0006.26,0005.10,0005.03
2024-02-10 22:30:00,SystemResetWarning,0825.8,4.99,000.00,018.4,017.9,000.0,026.9,020.1,20.8,0000.0,0006.13,0005.03,0004.97
2024-02-10 22:31:00,SystemResetWarning,0825.7,5.01,000.00,018.4,017.9,000.0,026.9,020.1,20.8,0000.0,0006.03,0004.97,0004.90
2024-02-10 22:32:00,SystemResetWarning,0825.8,5.01,000.00,018.4,017.9,000.0,026.9,020.1,20.8,0000.0,0005.98,0004.90,0004.81
2024-02-10 22:33:00,SystemResetWarning,0825.7,4.99,000.00,018.4,017.9,000.0,026.9,020.0,20.8,0000.0,0005.88,0004.84,0004.76
2024-02-10 22:34:00,SystemResetWarning,0825.7,5.00,000.00,018.4,017.9,000.0,026.9,020.0,20.8,0000.0,0006.66,0004.80,0004.71
2024-02-10 22:35:00,SystemResetWarning,0825.7,5.00,000.00,018.4,017.9,000.0,026.9,020.0,20.7,0000.0,0006.60,0004.76,0004.68
2024-02-10 22:36:00,SystemResetWarning,0825.7,5.01,000.00,018.3,017.9,000.0,026.9,020.0,20.7,0000.0,0006.55,0004.71,0004.63
2024-02-10 22:37:00,SystemResetWarning,0825.6,5.00,000.00,018.3,017.9,000.0,026.9,020.0,20.7,0000.0,0006.47,0004.67,0004.58
2024-02-10 22:38:00,SystemResetWarning,0825.7,4.99,000.00,018.3,017.9,000.0,026.9,020.0,20.7,0000.0,0006.50,0004.65,0004.57
2024-02-10 22:39:00,SystemResetWarning,0825.7,5.00,000.00,018.3,017.8,000.0,026.9,020.0,20.7,0000.0,0006.44,0004.62,0004.55
2024-02-10 22:40:00,SystemResetWarning,0825.7,5.01,000.00,018.3,017.8,000.0,026.9,020.0,20.8,0000.0,0006.44,0004.62,0004.54
2024-02-10 22:41:00,SystemResetWarning,0825.7,5.00,000.00,018.3,017.8,000.0,026.9,020.0,21.0,0000.0,0006.36,0004.59,0004.52
2024-02-10 22:42:00,SystemResetWarning,0825.7,4.99,000.00,018.3,017.8,000.0,026.9,020.0,21.1,0000.0,0006.28,0004.56,0004.50
2024-02-10 22:43:00,SystemResetWarning,0825.7,5.01,000.00,018.3,017.8,000.0,026.9,020.0,21.1,0000.0,0006.22,0004.54,0004.50
2024-02-10 22:44:00,SystemResetWarning,0825.8,5.02,000.00,018.3,018.0,000.0,027.0,020.2,21.0,0000.0,0006.33,0004.55,0004.51
2024-02-10 22:45:00,SystemResetWarning,0825.8,5.00,000.00,018.5,018.7,000.0,027.1,020.6,20.8,0000.0,0005.62,0004.57,0004.52
2024-02-10 22:46:00,SystemResetWarning,0825.8,4.99,000.00,018.7,019.0,000.0,027.0,020.8,20.6,0000.0,0005.50,0004.55,0004.50
2024-02-10 22:47:00,SystemResetWarning,0825.8,4.99,000.00,018.7,018.8,000.0,027.0,020.7,20.6,0000.0,0005.48,0004.54,0004.49
2024-02-10 22:48:00,SystemResetWarning,0825.8,5.00,000.00,018.7,018.7,000.0,027.0,020.6,20.6,0000.0,0005.47,0004.53,0004.48
2024-02-10 22:49:00,SystemResetWarning,0825.7,5.00,000.00,018.7,018.6,000.0,027.0,020.4,20.5,0000.0,0005.46,0004.51,0004.44
2024-02-10 22:50:00,SystemResetWarning,0825.8,5.00,000.00,018.7,018.5,000.0,027.0,020.4,20.6,0000.0,0005.44,0004.48,0004.40
2024-02-10 22:51:00,SystemResetWarning,0825.8,5.00,000.00,018.6,018.4,000.0,027.0,020.3,20.7,0000.0,0005.46,0004.45,0004.35
2024-02-10 22:52:00,SystemResetWarning,0825.8,5.00,000.00,018.6,018.3,000.0,027.0,020.3,20.8,0000.0,0006.17,0004.45,0004.32
2024-02-10 22:53:00,SystemResetWarning,0825.8,5.00,000.00,018.6,018.2,000.0,027.0,020.2,21.0,0000.0,0007.27,0004.44,0004.30
2024-02-10 22:54:00,SystemResetWarning,0825.8,5.00,000.00,018.6,018.2,000.0,026.9,020.2,21.0,0000.0,0007.30,0004.43,0004.28
2024-02-10 22:55:00,SystemResetWarning,0825.8,5.00,000.00,018.5,018.1,000.0,026.9,020.2,21.0,0000.0,0007.15,0004.40,0004.26
2024-02-10 22:56:00,SystemResetWarning,0825.8,5.00,000.00,018.5,018.1,000.0,026.9,020.1,21.0,0000.0,0007.06,0004.36,0004.22
2024-02-10 22:57:00,SystemResetWarning,0825.8,5.00,000.00,018.5,018.1,000.0,026.9,020.1,21.0,0000.0,0007.02,0004.35,0004.22
2024-02-10 22:58:00,SystemResetWarning,0825.8,5.00,000.00,018.5,018.0,000.0,026.9,020.1,21.0,0000.0,0006.98,0004.35,0004.22
2024-02-10 22:59:00,SystemResetWarning,0825.8,5.00,000.00,018.4,018.0,000.0,026.9,020.0,21.0,0000.0,0007.03,0004.36,0004.22
